#timestamp,LO_Frequency,Hit,StdDev 
1508738415.1,286046996.5,N
1508738416.0,286046996.5,N
1508738435.8,286046999.3,N
1508738455.7,286046998.6,N
1508738475.5,286046996.5,N
1508738495.3,286046998.2,N
1508738515.2,286047001.0,N
1508738535.0,286046999.1,N
1508738535.9,286046999.1,N
1508738555.7,286046999.4,N
1508738575.6,286046999.2,N
1508738595.4,286047000.8,N
1508738615.3,286046998.7,N
1508738635.1,286046999.2,N
1508738636.0,286046999.2,N
1508738655.8,286047001.0,N
1508738675.7,286046998.3,N
1508738695.5,286046996.7,N
1508738715.3,286046999.3,N
1508738735.2,286047001.0,N
1508738755.0,286046998.6,N
1508738755.9,286046998.6,N
1508738775.8,286046998.4,N
1508738795.6,286047000.5,N
1508738845.5,286046998.5,E
1508738855.4,286047000.1,N
1508738875.2,286047002.8,P
1508738895.1,286046998.2,N
1508738896.0,286046998.2,N
1508738915.8,286046998.1,N
1508738935.6,286047000.9,N
1508738955.5,286047001.2,N
1508738975.3,286046999.7,N
1508738995.1,286047002.0,N
1508739015.9,286047004.4,N
1508739035.7,286047001.7,N
1508739055.6,286047001.3,N
1508739075.4,286047003.4,N
1508739095.2,286047003.1,N
1508739115.1,286047004.1,N
1508739116.0,286047004.1,N
1508739135.8,286047001.5,N
1508739155.6,286047003.2,N
1508739175.5,286047004.4,N
1508739195.3,286047001.8,N
1508739215.2,286047001.5,N
1508739235.9,286047004.4,N
1508739255.7,286047003.3,N
1508739275.6,286047003.0,N
1508739295.4,286047004.4,N
1508739315.2,286047004.2,N
1508739335.1,286047004.1,N
1508739336.0,286047004.1,N
1508739355.8,286047004.0,N
1508739375.7,286047003.3,N
1508739395.5,286047003.8,N
1508739415.3,286047003.4,N
1508739435.2,286047003.5,N
1508739455.0,286047005.6,Y
1508739455.9,286047005.6,P
1508739475.7,286047001.8,N
1508739495.6,286047001.8,N
1508739515.4,286047004.3,N
1508739535.3,286047003.7,N
1508739555.1,286047003.6,N
1508739556.0,286047003.6,N
1508739575.8,286047003.4,N
1508739595.7,286047003.9,Y
1508739615.5,286047000.8,P
1508739635.3,286047000.3,N
1508739655.2,286046998.5,N
1508739675.0,286046998.7,N
1508739675.9,286046998.7,N
1508739695.8,286046999.3,N
1508739715.6,286046999.2,N
1508739735.4,286046998.4,N
1508739755.3,286046999.3,N
1508739775.1,286046997.0,N
1508739795.8,286046999.3,N
1508739815.7,286046999.0,N
1508739835.5,286046999.3,N
1508739855.4,286046996.6,N
1508739875.2,286046999.6,N
1508739895.0,286046996.5,N
1508739895.9,286046996.5,N
1508739915.8,286046999.0,N
1508739935.6,286046999.2,N
1508739955.4,286046998.8,N
1508739975.3,286046998.7,N
1508739995.1,286046998.2,N
1508740015.9,286047000.6,N
1508740035.7,286047000.7,N
1508740055.5,286047000.9,N
1508740075.4,286046999.9,N
1508740095.2,286047000.1,N
1508740115.0,286047002.1,N
1508740115.9,286047002.1,N
1508740135.8,286047002.4,N
1508740155.6,286047002.6,N
1508740175.5,286047000.2,N
1508740195.3,286047000.3,N
1508740215.1,286047002.4,N
1508740235.9,286047000.6,N
1508740255.7,286047000.2,N
1508740275.5,286047000.9,N
1508740295.4,286046998.2,N
1508740315.2,286047000.5,N
1508740335.1,286047002.8,N
1508740336.0,286047002.8,N
1508740355.8,286047004.4,N
1508740375.6,286047002.1,N
1508740395.5,286047001.5,N
1508740415.3,286047002.7,N
1508740435.1,286047002.7,N
1508740455.9,286047002.7,N
1508740475.7,286047000.2,N
1508740495.6,286047000.5,N
1508740515.4,286047002.1,N
1508740535.2,286047003.3,N
1508740555.1,286047005.4,Y
1508740556.0,286047005.4,P
1508740575.8,286047001.7,N
1508740595.6,286047001.9,N
1508740615.5,286047001.6,N
1508740635.3,286046999.8,N
1508740655.2,286047002.4,N
1508740675.9,286047001.8,N
1508740695.7,286047002.7,N
1508740715.6,286047000.2,N
1508740735.4,286047002.0,N
1508740755.2,286047002.8,N
1508740775.1,286047003.9,N
1508740776.0,286047003.9,N
1508740795.8,286047003.8,N
1508740815.7,286047001.6,N
1508740835.5,286047000.1,N
1508740855.3,286047002.4,N
1508740875.2,286047002.7,N
1508740895.0,286047001.3,N
1508740895.9,286047001.3,N
1508740915.7,286047001.4,N
1508740935.6,286047002.8,N
1508740955.4,286047001.5,N
1508740975.3,286047002.0,N
1508740995.1,286047002.0,N
1508740996.0,286047002.0,N
1508741015.8,286047002.1,N
1508741035.7,286047001.5,N
1508741055.5,286047003.8,Y
1508741075.3,286047000.3,P
1508741095.2,286047001.1,N
1508741115.0,286047000.2,N
1508741115.9,286047000.2,N
1508741135.8,286047002.6,Y
1508741155.6,286047000.1,P
1508741175.4,286046998.1,P
1508741195.3,286047001.1,N
1508741215.1,286046998.6,N
1508741235.8,286046998.3,N
1508741255.7,286047000.9,N
1508741275.5,286046998.7,N
1508741295.4,286046998.9,N
1508741315.2,286046999.6,N
1508741335.0,286047001.0,N
1508741335.9,286047001.0,N
1508741355.8,286046998.7,N
1508741375.6,286047001.1,N
1508741395.4,286047000.7,N
1508741415.3,286047000.8,N
1508741435.1,286047001.0,N
1508741455.9,286047000.2,N
1508741475.7,286047001.2,N
1508741495.5,286046998.5,N
1508741515.4,286046999.6,N
1508741535.2,286046999.6,N
1508741555.0,286046999.4,N
1508741555.9,286046999.4,N
1508741575.8,286046997.1,N
1508741595.6,286046996.8,N
1508741615.5,286046999.1,N
1508741635.3,286046998.9,N
1508741655.1,286046999.3,N
1508741675.9,286046999.4,N
1508741695.7,286046998.5,N
1508741715.5,286046998.4,N
1508741735.4,286046998.9,N
1508741755.2,286046996.5,Y
1508741775.1,286046999.1,P
1508741776.0,286046999.1,P
1508741795.8,286046999.1,P
1508741815.6,286046997.2,Y
1508741835.5,286046999.3,P
1508741855.3,286046998.9,P
1508741875.1,286047001.2,P
1508741895.9,286046999.1,N
1508741915.7,286046999.3,N
1508741935.6,286046999.0,N
1508741955.4,286046999.5,N
1508741975.2,286046999.1,N
1508741995.1,286046998.7,N
1508741996.0,286046998.7,N
